Regional Weather Roundup
Issued by NWS

Home | Current Version | Previous Version | Text Only | Print | Product List | Glossary Off
Versions: 1 2 3 4 5 6 7 8 9 10 11 12 13 14 15 16 17 18 19 20 21 22 23 24 25 26 27 28 29 30 31 32 33 34 35 36 37 38 39 40 41 42 43 44 45 46 47 48 49 50

025
ASUS43 KLOT 100103
RWRIL

ILLINOIS REGIONAL WEATHER ROUNDUP
NATIONAL WEATHER SERVICE CHICAGO/ROMEOVILLE IL
700 PM CST FRI DEC 09 2016

NOTE: "FAIR" INDICATES FEW OR NO CLOUDS BELOW 12,000 FEET WITH NO
SIGNIFICANT WEATHER AND/OR OBSTRUCTIONS TO VISIBILITY.

* THESE STATIONS ARE NOT UNDER NWS QUALITY CONTROL. THEY ALSO MAY NOT
  REPORT WEATHER SUCH AS PRECIPITATION OR FOG.

ILZ001-002-007-009-015-016-024-100200-
NORTHWEST ILLINOIS

CITY           SKY/WX    TMP DP  RH WIND       PRES   REMARKS
MOLINE         CLOUDY    20  12  71 W3        30.56S
STERLING*      PTCLDY    17  12  80 W5        30.55R WCI  10
SAVANNA*       CLEAR     20  13  72 W3        30.54S
$$

ILZ003-004-008-010-011-017-018-100200-
NORTH CENTRAL ILLINOIS

CITY           SKY/WX    TMP DP  RH WIND       PRES   REMARKS
ROCKFORD       PTCLDY    19  11  70 CALM      30.54R
FREEPORT*      CLEAR     16  11  78 W5        30.53S WCI   9
ROCHELLE*      CLEAR     13  10  86 W6        30.53S WCI   4
$$

ILZ005-006-012>014-019>023-100200-
NORTHEAST ILLINOIS

CITY           SKY/WX    TMP DP  RH WIND       PRES   REMARKS
CHICAGO-OHARE  MOCLDY    20  12  71 W9        30.51S WCI   9
CHICAGO-MIDWAY MOCLDY    22  12  65 W9        30.52S WCI  12
AURORA         CLEAR     13   9  84 CALM      30.53S
LANSING*       CLEAR     18  14  82 W6        30.53S WCI  10
WAUKEGAN       CLEAR     21  11  65 W3        30.49S
DUPAGE AIRPORT CLEAR     18  10  71 W6        30.51S WCI  10
KANKAKEE*      CLOUDY    24  14  66 W7        30.55S WCI  16
WHEELING       CLEAR     21  12  68 W7        30.53R WCI  12
MORRIS*        CLEAR     17  13  83 CALM      30.54S
NORTHERLY ISL    N/A     24  14  65 SW12        N/A  WCI  13
$$

LMZ740>746-100200-
SOUTHERN LAKE MICHIGAN

STATION/POSITION SKY/WX   TEMP    WIND        PRES    VSBY  WAVE
                          AIR SEA DIR/SP/G                  HT/PER
                          (F)     (DEG/KT/KT) (MB)    (MI)  (FT/S)
BURNHAM HARBOR             23     270/  7/ 10   N/A
CALUMET HARBOR             22     240/  7/ 11 1032.8S
BURNS HARBOR               24     230/ 10/ 15 1033.5S
$$

ILZ025>027-034>036-040-047-049-050-058-095>099-100200-
WEST-CENTRAL ILLINOIS

CITY           SKY/WX    TMP DP  RH WIND       PRES   REMARKS
QUINCY         CLOUDY    22  14  71 CALM      30.56R
GALESBURG*     MOCLDY    20  15  79 CALM      30.55S
MACOMB*        CLOUDY    19  16  85 W3        30.58S
JACKSONVILLE*  CLOUDY    22  16  76 W3        30.58R
PITTSFIELD*    CLOUDY    24  16  70 CALM      30.57S
$$

ILZ028>032-037-038-041>044-048-051>054-059>061-100200-
CENTRAL ILLINOIS

CITY           SKY/WX    TMP DP  RH WIND       PRES   REMARKS
PONTIAC        MIX PCPN  25  18  76 W8        30.55F WCI  16
BLOOMINGTON    FLURRIES  21  15  78 W8        30.54F WCI  11
DECATUR        CLOUDY    23  13  65 VRB6      30.56F WCI  16
PEORIA         CLOUDY    23  12  62 CALM      30.56F
LACON*         CLOUDY    23  14  69 W7        30.55S WCI  15
LINCOLN*       CLOUDY    23  14  67 CALM      30.57S
SPRINGFIELD    CLOUDY    24  15  68 CALM      30.57F
TAYLORVILLE    CLOUDY    21  15  76 CALM      30.57S
$$

ILZ033-039-045-046-055>057-062-063-100200-
EAST-CENTRAL ILLINOIS

CITY           SKY/WX    TMP DP  RH WIND       PRES   REMARKS
CHAMPAIGN      CLOUDY    22  13  68 W8        30.55F WCI  12
RANTOUL*       FLURRIES  25  19  76 W8        30.55S WCI  16
MATTOON        CLOUDY    23  15  71 N6        30.55S WCI  16
PARIS*         CLOUDY    22  18  85 W7        30.57S WCI  13
$$

ILZ079-100>102-100200-
SOUTHWEST ILLINOIS

CITY           SKY/WX    TMP DP  RH WIND       PRES   REMARKS
ALTON          PTCLDY    23  16  74 CALM      30.57F
BELLEVILLE     CLEAR     23  15  69 NE2       30.57S
CAHOKIA*       CLEAR     23  14  68 CALM      30.58S
SPARTA*        CLEAR     24  14  68 CALM      30.58S
$$

ILZ064>066-069>071-074>076-080>082-084>086-088>090-092>094-100200-
SOUTH-CENTRAL ILLINOIS

CITY           SKY/WX    TMP DP  RH WIND       PRES   REMARKS
CARBONDALE     CLEAR     22  13  68 CALM      30.58S
CAIRO*         CLEAR     24  17  75 CALM      30.58S
EFFINGHAM*     CLOUDY    22  17  82 W3        30.59S
MARION         CLEAR     23  16  74 CALM      30.59R
CENTRALIA*     CLEAR     23  17  78 CALM      30.57S
SALEM*         CLEAR     22  17  80 CALM      30.58R
METROPOLIS*    CLEAR     26  14  60 CALM      30.59R
$$

ILZ067-068-072-073-078-083-087-091-100200-
SOUTHEAST ILLINOIS

CITY           SKY/WX    TMP DP  RH WIND       PRES   REMARKS
LAWRENCEVILLE  CLOUDY    25  17  72 N3        30.58F
FLORA*         CLOUDY    25  16  68 W5        30.59S WCI  19
FAIRFIELD*     CLEAR     23  16  76 CALM      30.57F
HARRISBURG*    CLEAR     25  17  70 CALM      30.60R
ROBINSON*      CLOUDY    24  17  75 CALM      30.59S
CARMI*         CLEAR     24  18  80 NW6       30.58S WCI  16
$$

ABBREVIATIONS USED IN REMARKS
   TC - TEMPERATURE IN CELSIUS
  WCI - WIND CHILL INDEX
   HX - HEAT INDEX
  VSB - VISIBILITY
$$





USA.gov is the U.S. government's official web portal to all federal, state and local government web resources and services.